Preview of NWS' New Version of Forecast
This preview is not operational and should not be used for support decisions.

Regional Weather Roundup (RWR)

Issued by National Weather Service (NWS)

                            
000
ASUS45 KBOI 251010
RWRID 

IDAHO REGIONAL WEATHER ROUNDUP
NATIONAL WEATHER SERVICE BOISE ID
400 AM MDT TUE JUN 25 2019

NOTE: "FAIR" INDICATES FEW OR NO CLOUDS BELOW 12000 FEET
WITH NO SIGNIFICANT WEATHER AND/OR OBSTRUCTIONS TO VISIBILITY

IDZ012-014-251100-
SOUTHWEST IDAHO

  
CITY           SKY/WX    TMP DP  RH WIND       PRES   REMARKS
BOISE          MOCLDY    58  40  51 S7        29.81R                  
CALDWELL       MOCLDY    58  47  66 W5        29.82R                  
MOUNTAIN HOME  MOCLDY    55  40  56 E5        29.82S                  
$$

IDZ016-017-251100-
SOUTHCENTRAL IDAHO

  
CITY           SKY/WX    TMP DP  RH WIND       PRES   REMARKS
BURLEY         PTCLDY    53  46  77 S3        29.87R                  
JEROME         MOCLDY    59  44  57 SE7       29.87S                  
TWIN FALLS     MOCLDY    54  42  64 S7        29.87S                  
$$

IDZ019>023-251100-
SOUTHEAST IDAHO

  
CITY           SKY/WX    TMP DP  RH WIND       PRES   REMARKS
IDAHO FALLS    CLOUDY    55  38  52 S5        29.94R                  
POCATELLO      CLOUDY    55  39  54 SE8       29.90F                  
REXBURG        MOCLDY    47  38  71 NE5       29.95R                  
$$

IDZ006-010-011-018-031-032-251100-
CENTRAL IDAHO MOUNTAINS

  
CITY           SKY/WX    TMP DP  RH WIND       PRES   REMARKS
MCCALL         CLOUDY    42  36  79 CALM      29.91F                  
HAILEY         CLOUDY    50  37  62 NW7       29.96F                  
STANLEY          N/A     40  33  76 NW3       30.02S                  
SALMON         PTCLDY    45  37  73 E3        29.94S                  
CHALLIS        MOCLDY    51  32  48 CALM      29.95S                  
$$

IDZ002-004-006-007-026-251100-
NORTHERN IDAHO

  
CITY           SKY/WX    TMP DP  RH WIND       PRES   REMARKS
LEWISTON       CLEAR     53  37  54 SE6       29.85S                  
LOWELL           N/A     50  46  86 CALM      29.91F                  
COEUR D'ALENE  CLEAR     49  45  86 E7        29.89S                  
MULLAN PASS      N/A    N/A N/A N/A MISG      29.96S                  
$$